Regional Weather Roundup
Issued by NWS

Home | Current Version | Previous Version | Text Only | Print | Product List | Glossary Off
Versions: 1 2 3 4 5 6 7 8 9 10 11 12 13 14 15 16 17 18 19 20 21 22 23 24 25 26 27 28 29 30 31 32 33 34 35 36 37 38 39 40 41 42 43 44 45 46 47 48 49 50

000
ASUS43 KOAX 220202
RWRNE

WEATHER ROUNDUP FOR NEBRASKA
NATIONAL WEATHER SERVICE OMAHA NE
800 PM CST TUE FEB 21 2017

NOTES: SATELLITE DATA IS BEING USED TO AUGMENT CLOUD COVER ABOVE
       12000 FEET.
       "FAIR" INDICATES FEW OR NO CLOUDS BELOW 12,000 FEET WITH NO
       SIGNIFICANT WEATHER AND/OR OBSTRUCTIONS TO VISIBILITY.

  * THESE STATIONS DO NOT REPORT WEATHER SUCH AS RAIN...SNOW OR FOG.

NEZ001>004-019>022-054>056-220300-
NEBRASKA PANHANDLE

CITY           SKY/WX    TMP DP  RH WIND       PRES   REMARKS
SCOTTSBLUFF    CLEAR     63  19  18 W22G30    29.82F
ALLIANCE       CLEAR     49  21  33 SW10      29.80F
CHADRON        CLEAR     55  26  32 SW12      29.74S
KIMBALL        CLEAR     50  23  34 SW13      29.89F
SIDNEY         CLEAR     57  17  21 W17       29.86F
$$

NEZ057>060-069>072-079>082-220300-
SOUTHWEST NEBRASKA

CITY           SKY/WX    TMP DP  RH WIND       PRES   REMARKS
NORTH PLATTE   CLEAR     53  26  35 CALM      29.81S
IMPERIAL       CLEAR     54  19  25 CALM      29.85S
LEXINGTON      CLEAR     59  27  29 SW8       29.81F
MCCOOK         CLEAR     57  25  29 SW8       29.83S
OGALLALA       CLEAR     54  21  27 CALM      29.84S
$$

NEZ005>010-023>029-035>040-094-220300-
NORTH CENTRAL NEBRASKA

CITY           SKY/WX    TMP DP  RH WIND       PRES   REMARKS
VALENTINE      CLEAR     53  30  41 SW12      29.72S
AINSWORTH      PTCLDY    53  35  50 SW7       29.74S
BROKEN BOW     CLEAR     51  30  44 CALM      29.78S
O`NEILL        PTCLDY    57  35  43 SW8       29.72F
ORD            CLEAR     50  32  50 SW10      29.75S
THEDFORD       CLEAR     56  28  34 CALM      29.79S
$$

NEZ041-046>049-061>064-073>077-083>087-220300-
SOUTH CENTRAL NEBRASKA

CITY           SKY/WX    TMP DP  RH WIND       PRES   REMARKS
GRAND ISLAND   CLEAR     56  36  47 S10       29.79F
AURORA         CLEAR     58  31  36 SW8       29.79F
HASTINGS       CLEAR     61  29  29 S6        29.81F
HOLDREGE       CLEAR     62  24  23 SW8       29.82S
KEARNEY *      CLEAR     61  28  29 SW6       29.81S
YORK           CLEAR     55  32  41 S7        29.80S
$$

NEZ011>018-030>034-042>045-220300-
NORTHEAST NEBRASKA

CITY           SKY/WX    TMP DP  RH WIND       PRES   REMARKS
NORFOLK        CLEAR     58  35  42 S14       29.72F
ALBION         CLEAR     57  32  38 CALM      29.75F
FREMONT        CLEAR     63  32  30 S12       29.77F
TEKAMAH        CLEAR     48  39  71 S7        29.76F
WAYNE          CLEAR     55  35  46 S9        29.73S
$$

NEZ050>053-065>068-078-088>093-220300-
SOUTHEAST NEBRASKA

CITY           SKY/WX    TMP DP  RH WIND       PRES   REMARKS
LINCOLN        CLEAR     54  30  40 S12       29.81S
OMAHA EPPLEY   CLEAR     58  38  47 S13       29.79F
BEATRICE       CLEAR     60  35  39 S12       29.83F
FALLS CITY     CLEAR     57  35  43 S9        29.86S
NEBRASKA CITY  CLEAR     58  28  32 S14       29.83F
PLATTSMOUTH    CLEAR     57  32  38 S13       29.81F
$$

NEZ044-045-051>053-067-220300-
OMAHA AREA

CITY           SKY/WX    TMP DP  RH WIND       PRES   REMARKS
OMAHA EPPLEY   CLEAR     58  38  47 S13       29.79F
FREMONT        CLEAR     63  32  30 S12       29.77F
MILLARD        CLEAR     60  40  48 SE7       29.80F
OFFUTT AFB     CLEAR     53  39  61 E7        29.80F
PLATTSMOUTH    CLEAR     57  32  38 S13       29.81F
WAHOO          FAIR      51  32  48 S8        29.78F
$$




USA.gov is the U.S. government's official web portal to all federal, state and local government web resources and services.